Regional Weather Roundup
Issued by NWS Albany, NY

Home | Current Version | Previous Version | Graphics & Text | Print | Product List | Glossary Off
Versions: 1 2 3 4 5 6 7 8 9 10 11 12 13 14 15 16 17 18 19 20 21 22 23 24 25 26 27

000
ASUS41 KALY 191210
RWRALY

NEW YORK STATE HOURLY WEATHER ROUNDUP
NATIONAL WEATHER SERVICE ALBANY NY
800 AM EDT THU OCT 19 2017

NOTE: "FAIR" INDICATES FEW OR NO CLOUDS BELOW 12,000 FEET WITH NO
SIGNIFICANT WEATHER AND/OR NO OBSTRUCTIONS TO VISIBILITY.

NYZ032-033-038>043-046>054-057>066-NYZ062>081-082-084-191300-
EAST


CITY           SKY/WX    TMP DP  RH WIND       PRES   REMARKS
ALBANY         PTCLDY    50  45  83 S6        30.18F
GLENS FALLS    CLEAR     37  34  89 CALM      30.17S
POUGHKEEPSIE   PTCLDY    42  40  92 CALM      30.22F
NEWBURGH       PTCLDY    45  45 100 CALM      30.24F
MONTGOMERY     CLEAR     40  40 100 CALM      30.22S
WHITE PLAINS   PTCLDY    49  46  90 CALM      30.23F
ISLIP          PTCLDY    53  51  93 W3        30.26R
NEW YORK CITY  PTCLDY    58  46  64 S6        30.24S
CENTRAL PARK   CLEAR     57  46  66 CALM      30.27S
$$

NYZ005>009-017-018-044>046-055-056-191300-
CENTRAL


CITY           SKY/WX    TMP DP  RH WIND       PRES   REMARKS
FULTON           N/A    N/A N/A N/A MISG      30.10S
SYRACUSE       PTCLDY    50  43  77 S6        30.11F
ROME           CLEAR     49  43  80 E9        30.15F
ELMIRA         CLEAR     36  36 100 CALM      30.16F
BINGHAMTON     CLEAR     48  40  73 S9        30.17S
MONTICELLO     CLEAR     39  38  96 N5        30.23F
$$

NYZ026>034-041>043-087-191300-
NORTH


CITY           SKY/WX    TMP DP  RH WIND       PRES   REMARKS
WATERTOWN      CLEAR     55  44  66 S7        30.05F
FORT DRUM      NOT AVBL
OGDENSBURG     FAIR      52  45  76 S7        30.02S
MASSENA        CLEAR     57  45  64 SW12      30.01F
SARANAC LAKE   CLEAR     42  40  92 SW6       30.07F
PLATTSBURGH    CLEAR     41  39  93 CALM      30.06F
$$

NYZ001>004-010>016-019>021-085-191300-
WEST


CITY           SKY/WX    TMP DP  RH WIND       PRES   REMARKS
NIAGARA FALLS  MOCLDY    60  48  64 SW16      30.04F
BUFFALO        PTCLDY    55  43  63 SW12      30.07R
DUNKIRK        CLEAR     54  42  64 S12       30.10R
JAMESTOWN      CLEAR     45  39  79 S8        30.14S
WELLSVILLE     CLEAR     51  37  58 S10       30.14F
ROCHESTER      PTCLDY    53  42  66 SW10      30.08F
PENN YAN       CLEAR     51  40  65 SW6       30.12S
$$

             KEY
       WCI = WIND CHILL INDEX
       VSB = VISIBILITY
       HX  = HEAT INDEX
$$




USA.gov is the U.S. government's official web portal to all federal, state and local government web resources and services.